Regional Weather Roundup
Issued by NWS

Home | Current Version | Previous Version | Graphics & Text | Print | Product List | Glossary On
Versions: 1 2 3 4 5 6 7 8 9 10 11 12 13 14 15 16 17 18 19 20 21 22 23 24 25 26 27 28 29 30 31 32 33 34 35 36 37 38 39 40 41 42 43 44 45 46 47 48 49 50
000
ASUS43 KLSX 032059
RWRMO

WEATHER SUMMARY FOR MISSOURI
NATIONAL WEATHER SERVICE SPRINGFIELD MO
400 PM CDT FRI JUL 03 2015

NOTE: "FAIR" INDICATES FEW OR NO CLOUDS BELOW 12,000 FEET WITH NO
       SIGNIFICANT WEATHER AND/OR OBSTRUCTIONS TO VISIBILITY.
       CURRENT SKY AND/OR WEATHER CONDITIONS ARE NOT AVAILABLE FOR
       CHILLICOTHE AND FARMINGTON.

MOZ001>031-035>038-043-044-053-054-032200-
...NORTHERN AND WESTERN MISSOURI...

CITY           SKY/WX    TMP DP  RH WIND       PRES   REMARKS
KANSAS CTY INT SUNNY     79  56  45 VRB5      29.96F
KANSAS C DTWN  SUNNY     81  59  47 N10       29.94S
LEE`S SUMMIT   SUNNY     79  58  48 NE10      29.95F
ST JOSEPH      SUNNY     80  59  48 VRB6      29.96S
CHILLICOTHE      N/A     80  59  48 N7        29.96F
KIRKSVILLE     SUNNY     78  58  49 VRB3      29.96F

$$
MOZ066>068-077>081-088>096-101>105-032200-
...SOUTHWEST MISSOURI...

CITY           SKY/WX    TMP DP  RH WIND       PRES   REMARKS
SPRINGFIELD    MOSUNNY   80  69  69 NE13      29.90F
JOPLIN         PTSUNNY   77  69  76 NE13G21   29.90S THUNDER

$$
MOZ032>034-039>042-045>050-055>058-069>072-032200-
...CENTRAL MISSOURI...

CITY           SKY/WX    TMP DP  RH WIND       PRES   REMARKS
COLUMBIA       MOSUNNY   80  60  50 N7        29.93F
JEFFERSON CITY MOSUNNY   81  58  45 VRB5      29.91S
ROLLA          SUNNY     79  62  56 NE8       29.91F
SEDALIA        SUNNY     81  59  47 NE9       29.95F
OSAGE BEACH    MOSUNNY   79  64  61 N6        29.92S

$$
MOZ051-052-059>065-032200-
...EAST CENTRAL MISSOURI...

CITY           SKY/WX    TMP DP  RH WIND       PRES   REMARKS
ST LOUIS INTL  MOSUNNY   83  65  54 N6        29.90F
SPIRIT OF STL  PTSUNNY   82  65  56 VRB3      29.89F
ST CHARLES     MOSUNNY   81  67  62 NE8       29.89F

$$
MOZ072>076-082>087-097>100-106>115-032200-
...SOUTH CENTRAL AND SOUTHEAST MISSOURI...

CITY           SKY/WX    TMP DP  RH WIND       PRES   REMARKS
CAPE GIRARDEAU PTSUNNY   76  70  82 W6        29.86F
FARMINGTON     MOSUNNY   79  64  61 NW7       29.93F
POPLAR BLUFF   CLOUDY    80  72  76 S10       29.85F
WEST PLAINS    PTSUNNY   76  69  79 CALM      29.92F

$$


USA.gov is the U.S. government's official web portal to all federal, state and local government web resources and services.